Temperature
16 16 16 16 16 16 15 15 15 15 15 15 14 14 14 14 14 14 14 13 13 13 13 13 13 12 12 12 12 12 12 12 12 12 12 12 12 12 12 12 12 12 11
15 15 15 15 15 15 15 15 15 14 14 14 14 14 14 14 13 13 13 13 13 13 12 12 12 12 12 12 12 12 12 12 11 11 11 11 11 11 11 11 11 11 11
15 15 15 15 15 15 14 14 14 14 14 14 14 14 13 13 13 13 13 13 13 12 12 12 12 12 12 12 11 11 11 11 11 11 11 11 11 11 11 11 11 11 11
14 14 14 14 14 14 14 14 14 14 14 13 13 13 13 13 13 13 13 13 12 12 12 12 12 12 12 11 11 11 11 11 11 11 10 10 10 10 10 10 10 10 10
14 14 14 14 14 14 14 14 13 13 13 13 13 13 13 13 13 13 13 13 12 12 12 12 11 11 11 11 11 11 11 11 10 10 10 10 10 10 10 10 10 10 10
14 14 14 14 14 14 14 13 13 13 13 13 13 13 13 13 13 13 13 13 12 12 12 11 11 11 11 11 11 10 10 10 10 10 10 10 10 10 10 10 10 10 10
14 14 14 14 14 14 14 13 13 13 13 13 12 13 13 13 13 13 13 12 12 12 11 11 11 11 11 10 10 10 10 10 10 10 9 10 10 9 9 9 9 9 9
14 14 14 14 14 14 13 13 13 13 13 12 12 12 12 12 12 12 12 12 12 11 11 11 11 10 10 10 10 9 9 9 9 9 9 9 9 9 9 9 9 9 9
14 14 14 14 14 13 13 13 13 13 12 12 12 11 11 11 11 11 11 11 11 11 10 10 10 10 10 9 9 9 9 8 8 8 8 8 8 8 9 9 9 9 9
14 14 14 14 13 13 13 13 13 12 12 12 12 11 10 10 10 10 10 10 10 10 10 10 9 9 9 9 8 8 8 8 8 8 8 8 8 8 8 8 8 8 8
14 14 14 13 13 13 13 13 12 12 12 11 11 10 10 9 9 9 9 9 9 9 9 9 9 9 8 8 8 8 7 7 7 7 7 7 7 8 8 8 8 8 8
14 14 13 13 13 13 12 12 12 11 11 11 10 10 9 9 9 8 8 8 8 8 8 8 8 8 8 7 7 7 7 7 6 6 6 6 7 7 7 7 7 7 7
14 13 13 13 13 12 12 12 11 11 11 10 10 9 9 8 8 8 8 8 7 7 7 7 7 7 7 7 6 6 6 6 6 6 6 6 6 6 6 6 7 6 6
13 13 13 12 12 12 11 11 11 10 10 9 9 9 8 8 8 8 7 7 7 6 6 6 6 6 6 6 5 5 5 5 5 5 5 5 5 6 6 6 6 6 6
12 12 12 11 11 11 11 10 10 10 9 9 8 8 8 7 7 7 7 7 6 6 6 5 5 5 5 5 5 5 5 4 4 4 4 4 5 5 5 5 5 5 5
12 11 11 11 10 10 10 9 9 9 8 8 7 7 7 6 6 6 6 6 6 5 5 5 5 4 4 4 4 4 4 4 4 4 4 4 4 4 4 4 4 4 4
11 11 10 10 10 9 9 8 8 7 7 7 6 6 6 6 6 6 6 5 5 5 4 4 4 3 3 3 3 3 3 3 3 3 3 3 3 3 3 4 4 4 4
10 10 9 9 9 8 8 7 7 6 6 6 5 5 5 5 5 5 5 5 5 4 4 4 3 3 3 3 3 2 2 2 2 2 2 2 3 3 3 3 3 3 3
9 9 9 8 8 7 7 6 6 6 5 5 5 5 5 5 4 4 4 4 4 4 4 3 3 3 2 2 2 2 2 1 1 1 2 2 2 2 2 2 2 2 2
8 8 8 7 7 6 6 5 5 5 5 5 4 4 4 4 4 4 4 4 4 4 3 3 3 2 2 2 2 1 1 1 1 1 1 1 1 1 1 1 1 2 2
7 7 7 6 6 5 5 5 4 4 4 4 4 3 3 3 3 3 3 3 3 3 3 3 2 2 2 1 1 1 1 1 0 0 0 0 0 0 1 1 1 1 1
7 6 6 5 5 5 4 4 4 3 3 3 3 3 2 2 2 3 3 3 3 3 2 2 2 2 1 1 1 0 0 0 0 -0 -0 -0 -0 -0 0 0 0 0 0
6 5 5 4 4 3 3 3 2 2 2 2 2 2 2 2 2 2 2 2 2 2 2 2 1 1 1 0 0 0 -0 -0 -0 -0 -0 -0 -0 -0 -0 -0 -0 -0 -0
5 5 4 3 3 2 2 2 2 1 1 1 1 1 1 1 1 1 1 2 2 1 1 1 1 0 0 -0 -0 -0 -0 -1 -1 -1 -1 -1 -1 -1 -1 -1 -1 -1 -1
4 4 3 2 2 2 1 1 1 1 1 1 1 1 1 1 1 1 1 1 1 1 1 0 0 0 -0 -0 -1 -1 -1 -1 -1 -1 -1 -1 -1 -1 -1 -1 -2 -2 -2
3 2 2 2 1 1 1 1 1 1 1 1 1 1 0 0 0 0 0 0 0 0 -0 -0 -0 -1 -1 -1 -1 -1 -1 -1 -1 -1 -2 -2 -2 -2 -2 -2 -2 -2 -2
Wind_Speed
7 8 8 9 9 9 9 8 7 7 7 8 9 9 9 9 8 9 10 13 16 14 12 10 9 9 8 8 8 7 7 6 6 5 5 4 3 3 3 2 2 2 2
10 8 6 7 8 10 10 9 8 6 5 4 5 6 7 7 8 8 9 11 15 16 14 12 11 10 10 10 9 9 9 9 9 8 8 7 6 6 5 4 3 3 2
11 8 5 5 7 9 8 7 5 3 2 2 3 5 5 7 8 8 9 10 11 14 16 15 13 11 10 10 10 10 9 9 10 10 10 10 9 9 8 7 6 5 4
11 9 4 4 6 5 4 2 2 2 2 2 3 4 4 5 7 9 9 9 9 10 12 14 13 11 10 9 10 10 9 8 9 10 11 12 12 11 11 10 9 8 7
11 8 5 4 5 4 3 2 2 2 2 3 4 4 4 4 5 8 7 9 8 8 8 8 8 8 7 7 7 8 8 7 7 8 9 11 13 13 13 12 11 11 10
9 8 5 4 4 2 2 1 2 2 2 3 3 4 4 5 4 5 6 6 5 5 5 4 4 3 1 2 4 6 7 7 7 6 7 9 10 12 13 14 14 13 12
8 7 4 3 2 2 2 2 2 2 2 1 1 3 4 4 4 4 3 2 1 1 2 3 4 4 4 6 6 6 7 7 7 8 8 8 9 10 11 13 14 15 15
7 6 4 3 2 2 2 1 1 1 1 1 1 1 4 4 3 3 3 2 1 3 4 5 7 7 7 7 8 8 8 8 8 9 9 8 9 10 11 11 12 13 14
7 6 5 3 2 2 2 2 2 3 2 2 2 3 2 3 3 3 4 5 5 5 5 7 9 9 8 8 9 9 9 9 9 10 10 9 9 9 10 9 10 11 11
6 6 5 4 2 1 1 1 1 2 2 3 2 3 3 3 2 2 2 3 6 6 6 6 8 9 9 9 9 9 10 10 9 9 9 9 9 8 7 7 7 7 7
6 6 5 4 3 2 1 1 0 0 1 2 2 2 2 2 4 4 3 1 3 4 5 5 6 7 8 8 9 10 10 10 10 10 9 9 9 9 7 5 5 4 4
3 5 6 5 4 2 2 1 1 0 0 1 1 2 2 2 2 3 4 2 1 2 4 5 5 6 7 8 9 10 11 11 11 12 11 11 11 10 8 6 5 4 3
3 3 4 4 3 2 2 2 1 0 0 0 1 1 1 2 1 2 2 2 2 2 2 3 4 6 7 8 9 10 10 11 11 11 12 12 12 12 10 8 7 6 4
4 4 4 4 3 3 2 2 1 1 1 1 0 0 0 0 1 1 2 2 2 2 2 2 2 4 6 7 8 9 10 11 10 11 11 12 12 12 10 9 9 8 7
4 5 5 4 3 3 2 2 1 1 1 2 1 1 1 1 1 1 1 1 3 3 3 3 2 2 3 6 7 8 9 11 10 10 11 11 12 12 11 10 10 9 9
5 5 5 4 3 3 2 2 2 1 2 1 1 2 2 1 2 2 1 1 0 2 2 2 2 1 3 4 7 8 8 10 10 10 10 11 12 13 13 13 12 11 11
6 6 5 4 4 3 2 2 2 2 2 2 2 2 2 2 2 2 2 1 1 0 2 2 2 2 2 3 5 6 7 9 9 10 10 10 11 12 12 13 13 13 13
6 5 5 5 4 3 3 3 3 3 2 3 3 3 2 2 3 2 2 2 1 1 2 3 2 2 2 2 2 3 6 7 8 9 9 10 10 11 11 12 12 12 12
6 5 5 5 4 3 3 3 4 4 3 3 3 3 3 3 3 2 2 2 1 1 1 3 2 2 2 1 2 2 4 6 7 9 9 9 9 10 10 10 10 10 11
6 5 5 4 4 4 4 4 4 4 4 4 4 3 3 3 2 2 2 2 1 2 3 3 3 2 2 2 2 2 2 3 3 7 8 8 9 9 9 9 9 9 9
6 6 5 5 4 4 3 4 4 5 5 4 4 3 2 3 3 2 2 1 2 2 3 3 2 2 2 1 1 1 1 1 2 4 3 5 6 7 8 8 8 7 7
5 5 5 5 5 3 6 7 6 5 4 4 4 2 2 3 4 5 5 4 3 3 3 3 2 2 2 2 1 1 1 1 1 3 3 3 4 3 6 6 6 6 6
5 5 5 5 5 5 7 7 7 5 5 4 4 3 1 2 4 4 5 7 6 5 4 5 4 3 3 3 3 2 1 1 1 2 2 1 3 2 4 6 5 4 5
5 5 5 6 5 5 8 8 8 5 4 4 4 4 3 2 2 4 4 4 4 4 4 3 4 4 3 3 3 3 3 2 1 2 2 0 2 2 4 6 6 5 5
5 5 5 6 6 5 8 9 8 4 4 3 3 3 4 4 5 6 4 3 2 2 4 6 6 5 5 4 5 4 3 2 0 1 2 1 1 2 3 3 5 6 6
5 6 5 6 6 5 9 10 9 4 4 3 3 3 5 6 6 6 5 4 3 2 1 3 4 4 5 4 4 4 3 3 1 1 1 1 1 2 3 2 3 5 6
Wind_Direction
181 186 197 202 207 212 218 228 236 245 252 252 247 243 247 252 255 250 249 239 234 234 236 236 237 240 243 246 247 243 238 236 232 226 223 218 216 209 194 177 158 144 115
179 181 189 197 206 212 217 221 225 229 239 244 247 246 249 257 262 261 257 251 243 242 241 242 244 246 250 253 254 252 246 239 235 231 228 226 224 225 221 215 207 199 184
176 175 176 186 202 206 209 213 225 230 246 253 265 270 270 274 275 270 265 254 250 246 245 246 249 250 254 261 266 264 257 246 239 235 232 229 226 226 225 222 219 215 211
174 168 166 183 197 194 190 191 203 230 258 266 274 280 282 283 278 274 270 261 252 249 249 248 249 253 260 270 278 282 279 267 253 244 238 233 230 228 225 223 221 219 217
173 168 170 185 187 180 186 198 203 208 247 269 274 275 276 272 272 276 270 263 255 249 246 244 244 250 263 285 299 308 311 305 285 265 253 244 238 232 227 225 223 222 219
173 170 171 182 176 161 184 200 220 223 233 255 275 278 274 270 271 267 264 266 259 249 232 222 217 227 259 327 339 339 340 338 329 305 278 262 250 241 235 231 228 226 223
167 165 163 165 159 169 193 201 202 231 252 247 290 304 299 288 289 288 282 270 277 258 162 148 137 119 93 66 42 25 11 358 344 328 309 286 268 257 249 242 234 231 228
157 157 152 151 150 161 163 179 174 198 245 191 188 284 313 326 336 351 1 23 38 64 77 85 96 93 90 76 53 39 24 5 348 336 324 306 286 269 260 253 244 235 231
145 144 145 143 141 158 181 201 190 193 232 244 203 205 235 263 307 336 19 37 44 51 57 66 72 75 75 69 55 40 28 12 353 338 328 320 307 287 272 264 256 244 238
127 127 124 124 119 131 167 219 199 202 205 236 250 229 222 214 239 297 343 34 46 45 47 58 64 63 62 60 53 40 28 14 1 345 341 333 329 316 299 283 269 252 240
114 115 114 108 102 104 117 113 119 216 210 219 223 237 246 238 225 228 257 307 56 39 41 50 58 56 52 53 47 39 30 19 9 358 351 349 346 344 336 318 297 289 258
105 105 105 101 96 90 88 85 77 57 271 245 236 230 229 237 228 221 233 230 172 82 49 45 49 50 48 47 42 36 29 24 17 12 11 14 10 6 360 2 352 332 310
143 138 115 109 102 93 85 80 86 45 5 198 239 252 253 247 243 225 228 226 191 149 112 55 40 45 47 44 36 32 29 26 22 19 19 22 20 17 14 12 12 9 0
147 138 122 117 108 96 85 78 77 45 70 83 45 27 256 344 326 253 223 202 211 185 154 140 57 47 49 48 39 38 33 34 35 30 27 26 23 21 23 27 27 24 23
135 129 123 114 102 92 85 84 82 54 69 61 51 55 78 46 24 4 339 220 203 206 194 151 134 50 56 58 46 45 38 35 38 37 34 31 29 31 33 36 36 36 38
129 129 121 115 109 96 85 88 98 94 95 74 65 73 69 48 38 27 17 358 266 204 173 130 128 109 58 68 55 51 44 37 36 39 42 42 40 41 44 45 45 48 52
133 133 132 128 123 114 105 110 114 105 105 86 73 82 69 60 56 29 27 30 24 111 167 122 105 99 72 57 45 47 48 40 32 42 47 47 46 46 48 49 49 50 51
134 132 129 127 127 123 118 124 121 107 108 104 88 86 69 68 58 41 43 45 38 33 145 149 126 116 86 65 48 44 40 38 30 37 46 47 48 50 51 50 48 47 47
130 127 127 133 134 130 122 121 120 110 100 96 93 93 83 86 70 51 50 44 25 32 80 132 128 110 91 70 59 43 39 28 27 31 40 43 46 49 49 49 47 45 43
136 135 135 138 139 135 129 128 124 118 109 97 91 90 88 96 105 88 68 49 63 76 89 110 116 109 96 76 82 63 40 20 11 16 26 36 42 45 43 44 44 43 41
147 146 142 142 142 143 149 146 141 137 130 115 96 82 83 103 115 118 117 112 112 111 111 115 118 110 103 94 107 63 74 11 6 10 360 12 23 30 28 28 33 38 36
150 153 158 159 163 167 169 168 155 144 141 138 128 98 73 62 75 79 87 95 119 138 147 136 132 142 150 148 129 100 101 87 318 350 12 352 13 11 5 7 15 24 27
162 164 166 166 170 177 178 175 166 149 149 153 155 155 141 109 84 64 69 62 56 74 131 150 149 161 163 175 153 129 130 145 213 317 7 338 352 341 343 350 358 18 23
168 170 173 172 172 189 185 178 166 144 148 163 175 177 169 165 160 138 110 76 51 43 76 99 134 151 159 163 164 161 161 129 80 11 27 344 335 322 328 344 2 19 21
172 176 176 174 177 190 191 182 165 145 155 172 184 186 183 193 196 161 134 119 83 45 85 112 123 130 134 145 147 121 116 100 109 343 10 50 337 324 320 321 349 9 11
180 177 180 182 182 194 199 193 180 160 172 186 198 209 206 202 204 177 157 156 163 183 109 91 81 75 68 75 102 125 143 139 159 246 337 58 5 5 336 313 325 345 356
Height
1563 1564 1565 1566 1567 1568 1568 1569 1569 1569 1569 1569 1569 1568 1568 1568 1567 1567 1566 1566 1565 1565 1564 1563 1561 1560 1559 1558 1557 1556 1556 1555 1554 1553 1552 1551 1550 1550 1549 1548 1547 1547 1546
1562 1563 1564 1565 1565 1566 1566 1567 1567 1567 1567 1567 1567 1567 1566 1566 1565 1565 1564 1563 1563 1562 1562 1561 1560 1559 1558 1556 1555 1554 1554 1553 1552 1551 1551 1550 1549 1549 1548 1547 1547 1546 1546
1561 1562 1562 1563 1564 1564 1565 1565 1565 1565 1565 1565 1565 1564 1564 1563 1563 1562 1561 1561 1560 1559 1559 1558 1558 1557 1556 1554 1553 1552 1551 1550 1550 1549 1549 1548 1548 1547 1547 1546 1545 1545 1545
1559 1560 1561 1561 1562 1563 1563 1563 1563 1563 1563 1563 1562 1562 1561 1561 1560 1559 1558 1557 1557 1556 1556 1555 1555 1554 1553 1552 1551 1550 1549 1548 1547 1546 1546 1546 1545 1545 1545 1544 1544 1543 1543
1557 1558 1559 1560 1560 1560 1561 1561 1561 1561 1560 1560 1559 1559 1558 1557 1556 1556 1555 1554 1553 1552 1552 1552 1551 1551 1550 1549 1548 1547 1546 1545 1544 1543 1542 1542 1542 1542 1542 1542 1542 1542 1541
1554 1555 1556 1557 1558 1558 1558 1558 1558 1558 1557 1557 1556 1555 1554 1553 1552 1551 1550 1549 1549 1548 1548 1548 1548 1547 1547 1546 1545 1544 1543 1542 1541 1540 1539 1539 1538 1538 1538 1538 1539 1539 1539
1552 1553 1554 1554 1555 1555 1555 1555 1555 1554 1554 1553 1552 1551 1550 1549 1548 1547 1546 1545 1545 1545 1544 1544 1544 1544 1544 1543 1542 1541 1540 1539 1537 1536 1535 1535 1534 1534 1534 1534 1535 1535 1536
1549 1550 1550 1551 1551 1552 1551 1551 1551 1550 1550 1550 1549 1547 1545 1545 1543 1543 1543 1542 1542 1542 1541 1541 1541 1541 1540 1540 1539 1538 1537 1535 1534 1533 1532 1531 1530 1530 1530 1530 1530 1531 1532
1546 1547 1547 1548 1548 1548 1548 1548 1547 1547 1546 1546 1545 1545 1544 1541 1541 1541 1540 1540 1539 1539 1538 1538 1537 1537 1537 1536 1536 1535 1533 1532 1531 1529 1528 1527 1527 1526 1526 1526 1526 1527 1527
1542 1543 1543 1544 1544 1544 1544 1543 1543 1542 1542 1541 1541 1540 1540 1540 1539 1537 1537 1537 1536 1536 1535 1535 1534 1534 1533 1532 1532 1531 1530 1528 1527 1526 1525 1524 1523 1522 1522 1522 1522 1522 1523
1538 1539 1539 1540 1540 1540 1539 1539 1538 1538 1537 1536 1536 1535 1535 1535 1535 1535 1534 1533 1533 1532 1532 1531 1531 1530 1529 1529 1528 1527 1526 1525 1523 1522 1521 1519 1519 1518 1517 1517 1518 1518 1519
1534 1535 1535 1535 1536 1535 1535 1535 1534 1533 1532 1531 1531 1530 1530 1530 1530 1530 1530 1529 1529 1528 1528 1527 1527 1526 1526 1525 1525 1524 1523 1521 1520 1519 1517 1516 1515 1514 1514 1514 1514 1514 1514
1530 1530 1531 1531 1531 1531 1531 1530 1529 1528 1527 1527 1526 1526 1525 1525 1526 1526 1526 1525 1525 1524 1524 1524 1523 1523 1522 1522 1521 1520 1519 1518 1516 1515 1514 1513 1512 1511 1511 1511 1510 1511 1511
1526 1527 1527 1527 1527 1527 1526 1525 1525 1524 1523 1522 1521 1521 1521 1520 1521 1521 1521 1521 1521 1521 1520 1520 1520 1519 1519 1519 1518 1517 1516 1515 1513 1512 1511 1510 1509 1509 1508 1508 1508 1508 1508
1522 1522 1522 1523 1522 1522 1521 1521 1520 1519 1518 1517 1517 1516 1516 1516 1515 1515 1516 1516 1517 1516 1516 1516 1516 1516 1516 1516 1515 1514 1513 1512 1511 1510 1509 1508 1507 1507 1506 1506 1505 1505 1505
1518 1518 1518 1518 1518 1518 1517 1516 1516 1515 1514 1513 1512 1512 1511 1511 1511 1511 1511 1511 1512 1513 1513 1512 1512 1513 1513 1512 1512 1511 1510 1509 1508 1507 1507 1506 1506 1505 1504 1504 1503 1503 1503
1514 1514 1514 1514 1514 1513 1512 1511 1511 1510 1510 1509 1508 1508 1507 1507 1507 1507 1507 1507 1508 1508 1509 1509 1509 1509 1509 1509 1509 1508 1508 1507 1506 1505 1505 1504 1504 1503 1503 1502 1502 1502 1502
1510 1510 1510 1510 1509 1509 1508 1507 1507 1506 1506 1505 1505 1504 1504 1504 1503 1503 1503 1503 1504 1504 1505 1506 1506 1506 1506 1506 1506 1506 1505 1505 1504 1504 1503 1503 1503 1502 1502 1501 1501 1501 1501
1505 1506 1505 1505 1505 1505 1504 1504 1503 1503 1502 1502 1501 1501 1501 1500 1500 1500 1500 1500 1500 1500 1501 1502 1502 1503 1503 1503 1503 1503 1503 1503 1503 1502 1502 1501 1501 1501 1500 1500 1500 1500 1500
1501 1501 1501 1501 1501 1501 1500 1500 1500 1499 1499 1499 1498 1498 1498 1497 1497 1497 1497 1497 1497 1497 1498 1498 1499 1500 1500 1500 1500 1500 1500 1500 1500 1500 1500 1500 1499 1499 1499 1499 1498 1498 1498
1497 1497 1497 1498 1497 1497 1497 1497 1496 1496 1496 1495 1495 1495 1495 1494 1494 1494 1494 1494 1494 1495 1495 1495 1496 1497 1497 1497 1498 1498 1498 1498 1498 1499 1498 1498 1498 1498 1497 1497 1496 1496 1496
1493 1493 1494 1494 1494 1493 1493 1493 1493 1492 1492 1492 1492 1492 1492 1492 1492 1491 1492 1492 1492 1492 1492 1493 1493 1494 1494 1495 1495 1496 1496 1496 1496 1497 1497 1496 1496 1496 1495 1495 1494 1494 1494
1489 1489 1490 1490 1490 1490 1489 1489 1489 1489 1489 1489 1489 1489 1490 1490 1489 1489 1489 1489 1490 1490 1491 1491 1491 1492 1492 1493 1493 1493 1494 1494 1494 1494 1495 1494 1494 1493 1493 1492 1492 1492 1491
1486 1486 1486 1486 1486 1486 1486 1486 1486 1486 1486 1487 1487 1487 1487 1487 1487 1487 1487 1487 1488 1488 1488 1488 1489 1490 1490 1491 1491 1492 1492 1492 1492 1492 1492 1492 1492 1491 1491 1490 1490 1489 1489
1481 1482 1482 1482 1483 1483 1483 1483 1483 1483 1484 1484 1484 1484 1485 1485 1485 1485 1485 1485 1486 1486 1486 1486 1487 1488 1488 1488 1489 1489 1490 1490 1490 1490 1490 1490 1489 1489 1488 1488 1488 1487 1487
1477 1478 1478 1479 1479 1480 1480 1480 1481 1481 1481 1481 1481 1482 1482 1483 1483 1483 1483 1484 1484 1484 1485 1485 1485 1486 1486 1486 1487 1487 1488 1488 1488 1488 1488 1488 1487 1487 1486 1486 1485 1485 1484